Terminal Aerodrome Forecast
Issued by NWS

Home | Current Version | Previous Version | Text Only | Print | Product List | Glossary On
Versions: 1 2 3 4 5 6 7 8 9 10 11 12 13 14 15 16 17 18 19 20 21 22
000
FTUS41 KPHI 051240 AAA
TAFPNE
TAF AMD
KPNE 051240Z 0513/0612 36012KT 1/2SM SN FG SCT006 OVC010
     FM052200 35010KT P6SM OVC020
     FM060300 34012KT P6SM BKN100=

USA.gov is the U.S. government's official web portal to all federal, state and local government web resources and services.